Zurück zum Katalog

QIANFAN-184

AktivKommunikationPO
NORAD 69402·PAYLOAD·🇨🇳 China

Gestartet Jun 5, 2026 von Wenchang Space Launch Site

Loading…

Nächste Überflüge (nächste 24 Stunden)

TLE

AktuellSource: Space-Track

Epoche: Sep 14, 2026, 21:48 UTC

1 69402U 26125B   26257.90847474  .00000019  00000-0  10392-4 0  9991
2 69402  88.9883 270.9022 0001931  97.6155 262.5216 13.51028582 14055

Verfolge QIANFAN-184 in Echtzeit mit AllMySat

Download on the App Store